Wind_Speed
10 10 10 11 13 14 15 16 17 16 15 14 13 12 11 10 9 8 8 8 7 5 5 6 7 7 8 9 10 10 10 10 10 9 9 8 8 8 7 7 7 7 7 7 7 7 7 7 7
8 8 9 10 12 13 15 17 17 16 14 13 13 11 10 9 8 8 7 7 6 5 5 5 6 7 8 9 9 9 9 9 9 9 9 8 8 7 7 7 7 7 7 7 7 7 6 7 7
6 6 7 9 11 12 14 15 16 15 14 14 13 12 10 9 7 7 7 7 5 4 4 5 6 6 7 8 8 9 9 9 9 9 9 8 8 7 7 7 7 7 7 6 6 6 6 6 6
4 5 5 7 10 11 13 14 15 15 14 14 13 12 11 9 7 6 6 6 5 4 4 5 5 5 6 7 7 8 8 8 8 8 8 8 8 8 7 7 7 6 6 6 6 5 5 5 5
2 3 4 6 7 9 11 12 13 13 13 13 12 11 10 9 6 6 5 5 4 3 4 5 6 6 6 6 7 7 7 7 7 7 8 8 7 7 7 7 7 7 6 6 5 5 4 4 4
2 2 3 4 6 7 9 10 11 12 12 12 12 11 10 9 8 6 5 5 4 4 4 4 4 4 5 5 6 6 6 6 6 7 7 7 7 7 7 7 7 7 6 6 5 5 4 4 4
0 1 2 2 4 6 8 10 11 12 11 11 11 11 11 10 9 7 6 5 4 4 4 4 4 4 4 5 5 5 5 5 6 6 6 6 7 7 7 7 7 6 7 6 5 5 5 4 4
1 1 1 2 4 5 7 9 10 10 10 10 10 10 10 10 9 8 6 5 4 4 4 4 4 4 4 4 4 4 5 5 5 6 6 6 6 6 6 6 6 6 6 6 5 5 5 5 4
2 2 2 3 4 4 6 8 9 9 9 10 10 10 10 9 8 8 7 6 5 5 5 4 4 3 3 4 4 4 4 4 5 5 5 5 5 5 5 5 5 6 6 6 5 5 5 5 4
4 3 3 2 3 4 5 7 8 7 8 9 9 9 9 9 8 7 7 6 5 4 4 3 3 2 2 3 3 3 3 4 4 4 4 4 4 4 4 4 5 5 5 5 5 4 4 5 4
5 5 4 4 4 5 5 6 8 8 7 8 8 9 9 9 8 7 6 6 5 4 3 3 2 1 1 2 3 3 3 3 3 3 3 3 4 4 3 3 4 4 4 4 4 4 4 4 4
7 6 6 5 5 5 6 6 6 7 7 8 9 9 9 9 8 7 7 6 5 4 3 2 2 1 1 2 3 4 4 3 3 2 1 2 2 2 2 3 3 3 3 3 4 3 3 3 3
9 8 7 6 6 5 6 6 6 7 7 8 8 8 8 8 7 7 7 7 6 4 3 2 1 1 1 3 4 4 4 3 3 2 2 1 0 1 1 1 1 2 2 2 3 3 2 2 2
10 10 9 8 7 6 6 6 6 7 7 8 8 7 7 7 6 7 8 8 6 5 4 3 2 2 2 3 4 5 5 4 4 3 3 2 1 1 1 1 1 1 1 2 2 2 2 2 2
12 12 11 11 10 9 8 7 7 8 8 8 8 7 7 7 7 7 8 8 6 5 5 4 3 3 4 4 5 6 6 6 5 4 4 3 3 3 2 2 2 2 1 1 1 2 1 1 0
14 13 13 12 12 11 9 8 7 7 8 8 7 7 7 7 7 8 8 8 6 6 6 5 3 3 4 5 6 6 7 8 7 6 5 5 5 4 4 4 4 3 3 2 1 1 1 1 0
16 15 14 14 13 12 10 7 7 7 8 8 7 7 6 7 7 8 8 8 7 7 7 5 4 5 5 6 6 6 7 8 8 7 7 7 6 6 6 6 5 5 5 4 3 3 2 2 1
17 16 15 15 15 13 11 9 8 8 8 8 8 8 7 7 8 9 8 8 8 9 8 6 6 6 6 6 7 7 8 9 9 8 8 7 7 7 7 8 7 7 7 6 5 5 4 4 3
19 17 16 16 16 15 13 11 10 10 9 9 9 9 8 8 8 9 9 9 9 9 8 7 7 8 8 8 7 8 8 9 10 9 8 8 8 8 8 9 10 9 9 8 7 6 6 5 5
20 19 18 18 18 17 15 13 12 11 10 10 9 9 9 9 9 10 10 9 8 9 8 8 8 9 9 8 8 9 9 9 10 10 9 9 9 9 10 9 10 10 9 9 9 8 8 8 7
21 20 19 20 19 19 17 15 13 12 11 10 10 10 10 10 10 10 9 9 9 9 8 8 8 9 10 9 9 10 10 10 11 10 10 10 10 10 10 11 11 11 11 11 11 10 10 10 10
22 21 22 21 20 20 18 16 14 12 11 10 11 11 10 10 10 9 9 9 8 8 8 8 9 10 11 11 11 11 11 11 11 12 11 11 11 11 12 13 12 12 13 13 13 13 13 13 12
23 24 24 23 22 20 19 18 14 13 11 10 11 11 10 10 10 9 9 9 9 8 8 9 10 9 10 11 12 12 12 12 12 13 12 12 12 13 14 14 14 14 14 15 16 15 15 14 14
26 26 26 25 24 22 19 19 15 13 11 11 11 11 11 11 11 11 10 9 9 8 9 9 10 9 9 11 12 12 12 13 13 13 13 14 14 14 14 15 16 16 17 17 18 17 16 16 16
28 27 27 26 25 23 21 20 16 14 12 12 12 12 12 12 12 12 11 10 10 9 8 9 9 9 9 10 11 12 13 13 14 14 14 14 14 15 16 16 17 17 17 18 18 18 18 17 17
28 28 27 26 25 23 22 21 17 15 14 13 13 13 12 12 12 12 12 11 10 9 8 8 9 9 9 11 11 11 12 12 13 13 14 14 14 15 15 15 16 17 17 18 19 19 18 18 18
29 28 28 27 25 24 23 20 18 15 14 13 13 12 11 12 12 12 10 10 10 9 9 10 9 9 10 11 11 11 11 11 12 13 13 13 14 14 14 15 16 16 17 18 18 19 19 19 20
30 28 28 27 26 25 23 20 18 16 15 14 13 12 11 12 13 11 9 10 10 9 9 10 10 10 11 11 12 10 11 11 11 11 12 13 13 13 14 15 16 16 17 17 18 19 20 20 20
29 29 28 27 26 24 23 20 17 16 15 14 12 10 10 11 11 9 9 10 9 9 9 10 10 10 10 11 10 11 11 11 12 12 13 13 13 14 15 15 16 17 17 18 18 18 19 20 20
29 29 28 27 26 24 23 20 17 16 15 13 11 11 11 11 10 9 9 8 8 8 9 9 8 9 10 11 11 11 12 12 13 14 14 13 14 14 15 15 16 17 17 18 18 18 18 19 20
Wind_Direction
71 67 67 71 70 66 70 70 67 64 65 68 67 67 63 60 59 62 62 62 61 66 74 78 81 86 88 87 84 81 78 75 71 66 64 61 61 64 64 64 64 64 66 67 68 70 71 69 67
72 61 62 66 68 65 66 65 62 60 58 60 60 59 58 58 58 58 61 59 54 60 72 78 82 86 88 87 83 80 79 78 73 67 63 59 61 63 62 62 64 64 63 64 66 69 69 66 67
68 57 56 63 68 68 70 66 61 58 55 52 53 53 50 50 52 54 58 61 53 55 74 80 82 86 86 85 82 80 80 77 73 68 62 58 57 63 60 60 61 63 60 60 63 66 65 64 68
72 54 47 62 67 71 70 66 62 59 53 49 49 48 44 41 45 52 61 60 53 57 74 81 82 88 89 88 85 83 82 79 74 68 63 59 57 58 59 59 59 60 59 59 60 64 64 65 69
92 57 42 58 60 66 67 63 62 58 50 44 45 45 40 37 39 46 53 54 49 58 77 85 84 88 95 95 91 89 87 81 76 70 64 60 57 56 59 59 59 60 62 61 59 61 66 69 72
102 40 27 40 52 63 60 57 58 58 48 42 41 42 39 35 34 40 46 44 42 60 74 81 84 93 104 103 99 97 91 84 78 74 68 61 60 61 61 59 59 60 59 59 61 61 64 67 67
213 334 350 22 44 53 50 50 52 57 49 41 38 41 41 37 31 34 40 34 42 57 65 71 76 93 112 110 108 106 98 90 82 75 75 74 67 63 61 63 60 59 58 59 61 61 58 59 59
262 261 316 15 28 33 42 44 44 47 48 39 32 32 37 35 29 31 34 36 51 56 60 69 74 87 103 113 111 110 104 96 88 80 76 76 70 66 65 67 60 57 57 56 55 54 57 57 57
257 264 310 1 15 15 21 31 36 41 44 35 28 26 29 27 24 28 32 39 56 63 70 77 79 88 102 118 121 119 113 103 96 86 76 72 69 65 67 69 60 54 53 52 48 49 54 53 52
246 266 289 308 345 355 8 11 20 28 29 23 23 23 20 17 13 15 22 37 52 59 67 75 75 92 116 136 136 134 129 118 108 93 81 75 70 64 67 70 64 57 51 49 47 47 54 53 51
246 262 276 290 317 336 348 1 14 18 16 11 12 12 12 12 8 3 9 24 33 38 44 53 42 43 163 164 157 153 150 140 125 109 94 86 73 63 64 70 63 55 48 49 49 50 52 53 53
244 257 274 285 300 319 334 348 359 7 6 4 3 4 4 3 3 358 358 5 14 20 25 22 20 23 151 175 178 174 169 162 152 143 129 114 77 56 60 68 64 55 46 45 47 47 43 45 47
245 260 271 277 288 299 314 330 339 345 352 351 351 356 359 355 353 351 347 349 354 351 350 352 7 16 191 196 195 189 186 184 178 174 178 180 131 35 53 67 56 34 33 36 35 33 34 40 43
249 255 265 271 277 285 297 311 316 325 334 339 341 345 352 354 350 349 343 338 336 330 322 317 301 269 229 217 212 205 201 206 203 197 206 214 242 250 243 257 280 320 7 20 19 12 22 27 25
246 251 258 264 270 279 289 297 305 313 323 330 336 339 340 343 344 343 340 331 322 313 306 298 282 273 246 231 224 219 215 217 214 211 214 227 240 236 234 245 255 263 266 330 360 352 356 19 29
243 247 252 260 266 273 281 285 292 306 314 319 322 326 326 330 329 332 333 327 318 307 302 294 273 272 251 240 234 232 226 224 223 220 226 235 239 239 240 243 248 253 252 249 283 326 340 2 271
243 246 250 255 262 270 275 279 283 297 306 311 310 314 311 317 323 325 324 318 312 311 304 290 273 268 260 252 243 242 235 225 228 229 235 239 240 242 248 247 250 255 254 253 256 262 285 296 282
244 247 248 252 260 266 272 273 280 290 296 300 303 305 309 317 320 321 318 310 302 304 298 280 265 265 265 262 249 250 237 232 236 238 238 245 247 247 246 247 251 252 252 254 254 253 262 274 279
241 243 245 248 255 261 266 268 275 283 282 288 297 298 302 308 311 313 311 305 298 297 293 279 263 262 262 262 249 244 241 236 241 239 240 247 250 251 249 247 248 250 252 254 254 254 260 269 270
240 242 242 244 251 257 261 263 270 273 274 281 289 292 298 303 308 309 307 305 299 291 283 273 263 261 257 252 248 247 246 243 242 239 244 247 245 249 251 250 249 250 251 252 255 260 262 263 264
238 240 243 245 250 255 258 261 264 272 274 279 284 290 297 304 307 305 302 300 294 288 278 270 266 260 251 245 248 248 246 242 240 242 247 248 247 249 248 248 248 249 253 256 259 261 262 262 262
236 238 240 244 248 252 258 260 261 269 274 279 282 290 292 300 300 297 300 294 286 280 279 267 261 258 251 245 246 246 245 245 241 242 248 251 253 254 253 248 249 251 253 258 262 263 262 261 261
233 236 238 242 246 251 258 260 260 266 274 277 282 290 292 294 296 297 297 290 282 277 271 265 261 257 251 248 248 245 243 243 242 243 247 253 256 254 251 248 247 251 254 257 260 262 261 260 261
231 235 238 242 247 250 255 259 258 262 270 273 281 288 288 291 296 298 295 289 284 274 270 272 266 259 257 255 249 249 249 248 246 245 250 253 253 253 251 249 249 250 254 257 259 260 259 260 260
232 235 238 242 246 250 254 255 255 259 263 269 276 283 285 291 296 300 299 290 281 273 270 270 270 266 265 266 259 257 258 254 250 249 252 252 253 253 252 252 251 252 255 259 259 259 257 259 260
234 236 240 245 248 250 251 252 254 257 263 269 275 281 286 293 298 300 299 294 284 274 269 267 271 271 271 271 268 265 259 257 253 256 254 254 258 257 254 253 253 255 257 258 257 256 257 260 262
233 234 238 242 246 248 249 251 252 255 261 268 272 277 287 295 300 302 293 286 281 276 268 266 272 274 274 271 273 269 260 256 256 259 259 257 260 260 257 257 258 257 257 256 254 255 258 259 262
229 232 236 240 244 247 248 251 254 257 259 267 273 276 284 293 298 296 287 282 277 270 267 267 270 273 277 274 269 271 261 257 259 261 259 260 261 261 260 260 259 257 257 257 258 258 259 261 263
228 230 233 238 243 246 249 252 255 255 261 268 271 277 281 288 292 288 288 283 274 268 265 269 270 274 276 277 273 269 261 257 258 261 261 262 263 263 265 264 261 257 257 260 263 261 260 262 265
227 231 234 238 243 247 250 251 250 253 259 263 268 275 279 279 281 281 283 282 274 270 267 270 277 278 276 273 270 268 266 264 263 266 266 267 268 268 270 266 263 258 258 261 265 263 262 264 266
Height
5892 5892 5893 5894 5894 5893 5891 5891 5890 5890 5890 5890 5890 5890 5890 5890 5891 5893 5891 5890 5890 5890 5890 5890 5890 5891 5891 5891 5892 5892 5893 5894 5895 5895 5896 5896 5897 5897 5897 5897 5897 5897 5897 5897 5897 5897 5897 5897 5897
5894 5894 5896 5896 5895 5894 5893 5892 5892 5892 5892 5892 5891 5891 5891 5891 5891 5891 5891 5891 5891 5892 5891 5891 5892 5892 5892 5892 5893 5894 5894 5895 5896 5896 5897 5897 5898 5898 5898 5898 5898 5898 5898 5898 5898 5898 5898 5898 5898
5895 5896 5897 5897 5896 5895 5895 5894 5894 5893 5893 5893 5893 5893 5893 5892 5892 5892 5892 5892 5892 5892 5892 5892 5892 5892 5893 5893 5894 5895 5895 5896 5896 5897 5898 5898 5899 5899 5899 5899 5899 5899 5899 5899 5899 5899 5899 5899 5899
5897 5898 5899 5898 5897 5897 5896 5896 5895 5895 5895 5894 5894 5894 5894 5894 5894 5893 5893 5893 5893 5893 5893 5893 5893 5893 5894 5894 5895 5895 5896 5897 5897 5898 5898 5899 5899 5900 5900 5900 5900 5900 5900 5900 5900 5900 5900 5900 5900
5898 5899 5899 5898 5898 5898 5898 5897 5896 5896 5896 5895 5895 5895 5895 5895 5894 5894 5894 5894 5894 5894 5893 5893 5893 5894 5894 5895 5896 5896 5897 5897 5898 5899 5899 5899 5900 5900 5900 5901 5901 5901 5901 5901 5901 5901 5901 5901 5901
5899 5900 5900 5899 5899 5899 5899 5898 5897 5897 5897 5897 5897 5897 5896 5896 5895 5895 5895 5895 5895 5895 5894 5894 5894 5894 5895 5895 5896 5897 5897 5898 5899 5899 5899 5900 5900 5900 5901 5901 5901 5901 5901 5901 5901 5901 5901 5901 5901
5900 5900 5899 5900 5900 5900 5900 5900 5899 5898 5898 5898 5898 5898 5897 5897 5897 5896 5895 5895 5895 5895 5895 5895 5895 5895 5895 5896 5896 5897 5898 5899 5899 5900 5900 5900 5901 5901 5901 5902 5902 5902 5902 5902 5902 5902 5902 5902 5901
5900 5901 5900 5900 5900 5900 5901 5901 5900 5900 5899 5899 5899 5899 5898 5898 5897 5897 5896 5896 5895 5895 5895 5895 5895 5896 5896 5896 5897 5898 5898 5899 5900 5900 5900 5901 5901 5902 5902 5902 5902 5903 5903 5903 5902 5902 5902 5902 5902
5900 5901 5900 5900 5901 5901 5901 5901 5901 5901 5901 5900 5900 5900 5900 5899 5898 5898 5897 5896 5896 5896 5896 5896 5896 5896 5896 5897 5897 5898 5899 5899 5900 5901 5901 5901 5902 5902 5902 5903 5903 5903 5903 5903 5903 5903 5903 5903 5902
5900 5900 5900 5901 5901 5901 5901 5901 5902 5901 5901 5901 5901 5900 5900 5899 5899 5898 5898 5897 5897 5896 5896 5896 5896 5896 5897 5897 5898 5898 5899 5900 5900 5901 5902 5902 5903 5903 5903 5903 5903 5904 5904 5904 5904 5903 5904 5903 5903
5899 5900 5900 5901 5901 5901 5901 5902 5902 5902 5902 5902 5901 5901 5900 5900 5899 5899 5898 5898 5897 5897 5896 5896 5896 5896 5897 5897 5898 5899 5899 5900 5901 5901 5902 5903 5903 5903 5903 5904 5904 5904 5904 5904 5904 5904 5904 5904 5904
5898 5899 5900 5900 5901 5901 5902 5902 5902 5902 5903 5902 5902 5901 5901 5900 5900 5899 5898 5898 5897 5897 5896 5896 5896 5896 5896 5897 5897 5898 5899 5900 5901 5901 5902 5903 5903 5903 5904 5904 5904 5905 5905 5905 5905 5904 5904 5904 5904
5897 5898 5899 5900 5900 5901 5901 5901 5902 5902 5902 5902 5902 5901 5901 5900 5900 5899 5898 5898 5897 5896 5896 5896 5896 5896 5896 5896 5897 5898 5899 5900 5900 5901 5902 5902 5903 5903 5904 5904 5904 5905 5905 5905 5905 5905 5905 5904 5905
5896 5897 5898 5899 5899 5900 5901 5901 5901 5901 5902 5902 5901 5901 5901 5900 5900 5899 5898 5897 5896 5896 5896 5895 5895 5895 5896 5896 5897 5898 5898 5899 5900 5901 5901 5902 5903 5903 5903 5904 5904 5905 5905 5905 5905 5905 5905 5905 5905
5895 5896 5897 5897 5898 5899 5900 5900 5901 5901 5901 5901 5901 5901 5901 5900 5900 5899 5897 5896 5895 5895 5895 5894 5894 5895 5895 5896 5896 5897 5898 5899 5899 5900 5901 5901 5902 5902 5903 5904 5904 5905 5905 5905 5905 5905 5905 5905 5905
5893 5894 5895 5896 5896 5897 5900 5899 5899 5899 5900 5900 5900 5900 5900 5900 5899 5898 5897 5895 5894 5894 5893 5893 5893 5893 5894 5894 5895 5896 5897 5898 5898 5899 5900 5900 5901 5901 5902 5903 5903 5904 5904 5904 5905 5905 5905 5905 5905
5890 5892 5893 5894 5894 5895 5897 5898 5898 5898 5898 5899 5899 5898 5899 5899 5898 5897 5896 5895 5894 5893 5892 5892 5892 5892 5893 5893 5894 5895 5895 5896 5897 5898 5898 5899 5900 5900 5901 5902 5903 5903 5904 5904 5904 5905 5905 5905 5905
5888 5889 5891 5892 5892 5894 5895 5896 5897 5897 5897 5897 5897 5897 5897 5897 5896 5895 5894 5894 5893 5891 5891 5890 5890 5891 5891 5892 5892 5893 5893 5894 5896 5896 5897 5898 5898 5899 5900 5900 5901 5902 5903 5903 5903 5904 5904 5904 5904
5885 5887 5888 5889 5890 5892 5893 5895 5895 5895 5895 5895 5895 5895 5895 5895 5895 5894 5893 5892 5891 5890 5889 5889 5888 5889 5890 5890 5891 5891 5892 5893 5894 5895 5896 5896 5897 5897 5898 5899 5900 5900 5901 5902 5902 5903 5903 5903 5903
5881 5884 5886 5887 5888 5889 5891 5892 5893 5893 5893 5894 5893 5893 5893 5893 5892 5892 5890 5889 5889 5888 5887 5887 5887 5887 5888 5888 5889 5890 5890 5891 5892 5893 5894 5894 5895 5895 5896 5897 5898 5898 5899 5900 5901 5901 5901 5902 5902
5879 5881 5883 5884 5885 5886 5889 5890 5891 5891 5891 5892 5892 5892 5891 5891 5890 5889 5888 5887 5887 5886 5885 5885 5885 5885 5886 5886 5887 5888 5888 5889 5890 5891 5892 5892 5893 5893 5894 5895 5896 5896 5897 5898 5898 5899 5899 5900 5900
5876 5878 5879 5880 5882 5883 5886 5888 5889 5889 5889 5890 5890 5889 5889 5888 5888 5887 5886 5885 5884 5884 5883 5883 5883 5883 5883 5884 5885 5886 5886 5887 5888 5888 5889 5890 5891 5891 5892 5893 5894 5894 5895 5895 5896 5896 5897 5897 5898
5872 5873 5875 5877 5878 5881 5883 5884 5887 5887 5887 5888 5888 5887 5887 5886 5885 5884 5883 5883 5882 5881 5881 5880 5880 5880 5881 5881 5882 5882 5883 5884 5885 5886 5886 5887 5888 5888 5889 5889 5890 5891 5892 5892 5893 5893 5893 5894 5895
5867 5869 5871 5873 5875 5878 5880 5881 5883 5884 5885 5885 5885 5885 5884 5883 5882 5882 5881 5880 5879 5879 5879 5878 5878 5877 5878 5878 5878 5879 5880 5881 5882 5882 5883 5883 5884 5885 5885 5886 5887 5888 5888 5889 5889 5889 5890 5891 5891
5863 5866 5868 5870 5872 5874 5877 5877 5881 5881 5882 5882 5883 5882 5882 5881 5880 5879 5879 5878 5877 5876 5876 5876 5876 5876 5876 5876 5876 5877 5877 5877 5878 5878 5879 5880 5881 5881 5882 5883 5883 5884 5884 5885 5885 5886 5887 5887 5888
5859 5862 5865 5867 5869 5871 5873 5874 5878 5878 5879 5880 5880 5880 5880 5879 5878 5877 5876 5876 5875 5874 5874 5874 5874 5873 5874 5874 5874 5874 5874 5874 5874 5874 5875 5876 5877 5877 5878 5879 5879 5880 5880 5881 5881 5882 5883 5883 5884
5854 5857 5860 5863 5865 5867 5869 5871 5874 5875 5876 5877 5878 5877 5877 5876 5875 5875 5874 5873 5873 5872 5872 5872 5872 5872 5871 5872 5871 5871 5871 5871 5871 5871 5872 5873 5874 5874 5874 5875 5875 5876 5876 5877 5877 5878 5878 5879 5880
5849 5853 5856 5858 5861 5863 5865 5868 5871 5873 5874 5874 5875 5875 5875 5874 5873 5872 5871 5871 5870 5870 5869 5870 5870 5870 5869 5869 5869 5869 5869 5869 5869 5869 5870 5870 5871 5871 5871 5871 5871 5872 5872 5873 5873 5874 5874 5874 5875
5845 5848 5851 5854 5857 5859 5862 5867 5868 5869 5870 5871 5872 5872 5872 5871 5871 5870 5869 5869 5868 5868 5868 5868 5868 5867 5866 5866 5866 5866 5866 5866 5867 5867 5868 5868 5867 5867 5868 5867 5867 5867 5868 5868 5869 5869 5869 5870 5870
5840 5844 5848 5851 5853 5856 5858 5865 5864 5866 5867 5868 5869 5869 5869 5869 5868 5868 5867 5866 5866 5866 5866 5866 5866 5865 5864 5864 5863 5863 5864 5864 5864 5864 5864 5864 5864 5864 5864 5863 5863 5863 5864 5864 5864 5864 5865 5865 5865